Regional Weather Roundup
Issued by NWS

Home | Current Version | Previous Version | Text Only | Print | Product List | Glossary On
Versions: 1 2 3 4 5 6 7 8 9 10 11 12 13 14 15 16 17 18 19 20 21 22 23 24 25 26 27 28 29 30 31 32 33 34 35 36 37 38 39 40 41 42 43 44 45 46 47 48 49 50
000
ASUS43 KDMX 281307
RWRIA

WEATHER ROUNDUP FOR IOWA
NATIONAL WEATHER SERVICE DES MOINES IA
800 AM CDT MON JUL 28 2014

NOTE: "FAIR" INDICATES FEW OR NO CLOUDS BELOW 12,000 FEET WITH NO
SIGNIFICANT WEATHER AND/OR OBSTRUCTIONS TO VISIBILITY.

* - THESE STATIONS ARE NOT NWS STATIONS...THUS NOT UNDER NWS
QUALITY CONTROL.  THEY ALSO DO NOT REPORT WEATHER SUCH
AS PRECIPITATION OR FOG.

IAZ001>003-012>014-020>022-031>034-043>046-281400-
   NORTHWEST IOWA

CITY           SKY/WX    TMP DP  RH WIND       PRES   REMARKS
CARROLL *      SUNNY     59  57  94 N7        30.22R
CHEROKEE *     CLOUDY    59  59 100 N7        30.25R
DENISON *      SUNNY     59  59 100 N5        30.22R
LE MARS *      MOSUNNY   61  57  88 N8        30.26S
ORANGE CITY *  PTSUNNY   63  55  77 NW9       30.26R
SHELDON *      PTSUNNY   59  57  94 NW9       30.25R
SIOUX CITY     SUNNY     61  56  83 NW7       30.26R
SPENCER        CLOUDY    61  59  93 NW5       30.24R
STORM LAKE *   SUNNY     59  59 100 N7        30.24R
$$

IAZ055>058-069>071-079>083-090>094-281400-
   SOUTHWEST IOWA

CITY           SKY/WX    TMP DP  RH WIND       PRES   REMARKS
ATLANTIC *     PTSUNNY   59  57  94 NW6       30.22R
AUDUBON *      SUNNY     63  59  88 N8        30.23R
CLARINDA *     PTSUNNY   61  57  88 N7        30.24R
COUNCIL BLFS * MOSUNNY   61  59  94 N8        30.24R
CRESTON *      CLOUDY    61  59  94 N14       30.21R
HARLAN  *      SUNNY     59  57  94 N7        30.27R
LAMONI         PTSUNNY   62  59  90 N8        30.19R
RED OAK *      MOSUNNY   61  57  88 N6        30.23R
SHENANDOAH *   PTSUNNY   61  57  88 NW5       30.24R
$$

IAZ047>049-059>061-072>074-084-281400-
   CENTRAL IOWA

CITY           SKY/WX    TMP DP  RH WIND       PRES   REMARKS
AMES           SUNNY     63  58  83 N7        30.19R
ANKENY *       SUNNY     63  59  88 N9        30.19S
CHARITON *     MOSUNNY   63  59  88 N8G15     30.18R
DES MOINES     MOSUNNY   65  57  75 NE9       30.18R
GRINNELL*      SUNNY     59  55  88 N5        30.19R
KNOXVILLE *    SUNNY     63  55  77 N12       30.17R
MARSHALLTOWN   SUNNY     61  57  87 N8        30.19R
PELLA *        SUNNY     63  57  82 N6        30.19R
PERRY *        CLOUDY    61  59  94 N7        30.21R
$$

IAZ004>006-015-016-023>025-035-036-281400-
   NORTH CENTRAL IOWA

CITY           SKY/WX    TMP DP  RH WIND       PRES   REMARKS
ALGONA *       PTSUNNY   61  61 100 NW5       30.22R
CLARION *      PTSUNNY   61  59  94 N3        30.21R
ESTHERVILLE    CLOUDY    61  59  93 NW8       30.23R
FORT DODGE *   PTSUNNY   61  57  88 N6        30.22S
MASON CITY     CLOUDY    63  57  81 N6        30.22R
FOREST CITY *  CLOUDY    63  55  77 N9        30.21R
IOWA FALLS *   CLOUDY    61  57  88 N3        30.21R
$$

IAZ007>011-017>019-026>030-037>042-050>054-066-281400-
   NORTHEAST IOWA

CITY           SKY/WX    TMP DP  RH WIND       PRES   REMARKS
CEDAR RAPIDS   SUNNY     62  53  72 N8        30.15R
CHARLES CITY * CLOUDY    61  57  88 N5        30.20R
CLINTON *      SUNNY     59  54  82 N10       30.14S
DECORAH *      PTSUNNY   59  55  88 N6        30.17R
DUBUQUE        SUNNY     59  53  80 N9        30.14R
MONTICELLO *   SUNNY     61  55  82 N7G15     30.15R
OELWEIN *      SUNNY     61  55  82 N8        30.18R
WATERLOO       CLOUDY    62  56  80 NW10      30.17R
$$

IAZ064-065-067-068-078-281400-
   EAST CENTRAL IOWA

CITY           SKY/WX    TMP DP  RH WIND       PRES   REMARKS
DAVENPORT      SUNNY     61  55  81 N12       30.13R
IOWA CITY      SUNNY     63  55  75 N9        30.15R
MT. PLEASANT * PTSUNNY   64  59  82 N3        30.14R
MUSCATINE *    SUNNY     63  55  77 N13       30.13R
QUAD CITIES    SUNNY     64  53  67 N8        30.11R
$$

IAZ062-063-075>077-085>089-095>099-281400-
   SOUTHEAST IOWA

CITY           SKY/WX    TMP DP  RH WIND       PRES   REMARKS
BURLINGTON     CLOUDY    64  57  78 N13       30.12R
FAIRFIELD *    PTSUNNY   63  57  82 N13       30.15R
FORT MADISON * PTSUNNY   64  63  94 N8        30.13R
KEOKUK *       PTSUNNY   64  61  88 N12       30.11R
OSKALOOSA *      N/A     61  57  88 N9        30.17R
CENTERVILLE *  PTSUNNY   63  59  88 N9        30.18R
OTTUMWA        SUNNY     62  57  83 N9        30.15R
WASHINGTON *   SUNNY     63  59  88 N10       30.15R
$$

ABBREVIATIONS USED IN REMARKS
   TC - TEMPERATURES IN CELSIUS
  WCI - WIND CHILL INDEX
   HX - HEAT INDEX
  VSB - VISIBILITY
$$




USA.gov is the U.S. government's official web portal to all federal, state and local government web resources and services.